Flight Track Log - Related Links

Times and Time Zones

All times are in EST time to prevent confusion due to time zone crossing. See the BJS339 flight status page for this flight to view local times or setup timezone preferences in your user account.

Time Position Orientation Groundspeed Altitude Reporting Facility
EST Latitude Longitude Course Direction KTS MPH feet Rate Location/Type
Thu 09:59:14 AM 32.6681 -114.5936 48° Northeast 204 235 1,500  Level Los Angeles Center
Thu 09:59:25 AM 32.6731 -114.5886 40° Northeast 199 229 2,100 3,529 Climbing Los Angeles Center
Thu 09:59:31 AM 32.6803 -114.5817 39° Northeast 203 234 2,500 3,000 Climbing Los Angeles Center
Thu 10:00:15 AM 32.7025 -114.5497 50° Northeast 184 212 4,600 2,951 Climbing Los Angeles Center
Thu 10:00:32 AM 32.7044 -114.5294 83° East 194 223 5,500 2,903 Climbing Los Angeles Center
Thu 10:01:17 AM 32.7117 -114.4736 81° East 225 259 7,600 2,852 Climbing Los Angeles Center
Thu 10:01:33 AM 32.7150 -114.4508 80° East 263 303 8,400 2,361 Climbing Los Angeles Center
Thu 10:02:00 AM 32.7881 -113.8021 83° East  Level FlightAware Approximate
Thu 10:02:18 AM 32.7219 -114.4061 80° East 253 291 10,000  Level Los Angeles Center
Thu 10:02:33 AM 32.7267 -114.3564 84° East 279 321 11,200 2,613 Climbing Los Angeles Center
Thu 10:03:00 AM 32.7975 -113.7089 83° East  Level FlightAware Approximate
Thu 10:03:20 AM 32.7392 -114.2875 78° East 312 359 12,700  Level Los Angeles Center
Thu 10:04:00 AM 32.8426 -113.6379 48° Northeast  Level FlightAware Approximate
Thu 10:04:22 AM 32.7522 -114.1806 82° East 328 377 15,200  Level Los Angeles Center
Thu 10:05:24 AM 32.7664 -114.0681 81° East 343 395 16,600 829 Climbing Los Angeles Center
Thu 10:06:25 AM 32.7808 -113.9497 82° East 350 403 16,900 146 Climbing Los Angeles Center
Thu 10:07:27 AM 32.7964 -113.8369 81° East 347 399 16,900  Level Los Angeles Center
Thu 10:08:29 AM 32.8172 -113.7019 80° East 347 399 16,900  Level Los Angeles Center
Thu 10:09:31 AM 32.8761 -113.6106 52° Northeast 348 400 16,900  Level Los Angeles Center
Thu 10:10:21 AM 32.9250 -113.5367 52° Northeast 350 403 16,900 -216 Level Albuquerque Center
Thu 10:11:22 AM 32.9722 -113.4394 60° Northeast 342 394 16,500 -492 Descending Albuquerque Center
Thu 10:12:23 AM 33.0164 -113.3522 59° Northeast 318 366 15,900 -244 Descending Albuquerque Center
Thu 10:13:25 AM 33.0592 -113.2658 59° Northeast 306 352 16,000 49 Climbing Albuquerque Center
Thu 10:14:26 AM 33.1022 -113.1797 59° Northeast 302 348 16,000  Level Albuquerque Center
Thu 10:15:28 AM 33.1453 -113.0933 59° Northeast 302 348 16,000 -98 Level Albuquerque Center
Thu 10:16:29 AM 33.1883 -113.0072 59° Northeast 302 348 15,800 -1,024 Descending Albuquerque Center
Thu 10:17:31 AM 33.2400 -112.9036 59° Northeast 302 348 13,900 -1,707 Descending Albuquerque Center
Thu 10:18:32 AM 33.2806 -112.8200 60° Northeast 294 338 12,300 -1,463 Descending Albuquerque Center
Thu 10:19:34 AM 33.3114 -112.7381 66° East 277 319 10,900 -1,317 Descending Albuquerque Center
Thu 10:20:35 AM 33.3406 -112.6586 66° East 264 304 9,600 -976 Descending Albuquerque Center
Thu 10:21:37 AM 33.3711 -112.5814 65° Northeast 248 285 8,900 -677 Descending Albuquerque Center
Thu 10:22:39 AM 33.3961 -112.5133 66° East 229 264 8,200 -780 Descending Albuquerque Center
Thu 10:23:40 AM 33.4208 -112.4439 67° East 227 261 7,300 -927 Descending Albuquerque Center
Thu 10:24:42 AM 33.4289 -112.3742 82° East 215 247 6,300 -871 Descending Albuquerque Center
Thu 10:25:44 AM 33.4286 -112.3033 90° East 214 246 5,500 -878 Descending Albuquerque Center
Thu 10:26:45 AM 33.4292 -112.2322 89° East 214 246 4,500 -1,171 Descending Albuquerque Center
Thu 10:27:47 AM 33.4286 -112.1503 90° East 206 237 3,100 -1,175 Descending Albuquerque Center
Thu 10:28:22 AM 33.4333 -112.1167 80° East 196 226 2,600 -758 Descending Phoenix TRACON
Thu 10:29:22 AM 33.4333 -112.0667 90° East 117 135 1,900 -596 Descending Phoenix TRACON
Thu 10:30:53 AM 33.4292 -112.0183 96° East 116 133 1,100 -527 Descending Albuquerque Center
Thu 10:32:00 AM 33.4343 -112.0116 90° East  Level Estimated

Login

Don't have an account? Register now (free) for customized features, flight alerts, and more!